Regional Weather Roundup
Issued by NWS Albany, NY

Home | Current Version | Previous Version | Text Only | Print | Product List | Glossary On
Versions: 1 2 3 4 5 6 7 8 9 10 11 12 13 14 15 16 17 18 19 20 21 22 23 24 25 26 27 28 29 30 31 32 33 34 35 36 37 38 39 40 41 42 43 44 45 46 47 48 49 50
425
ASUS41 KALY 301310
RWRALY

NEW YORK STATE HOURLY WEATHER ROUNDUP
NATIONAL WEATHER SERVICE ALBANY NY
900 AM EDT SAT JUL 30 2016

NOTE: "FAIR" INDICATES FEW OR NO CLOUDS BELOW 12,000 FEET WITH NO
SIGNIFICANT WEATHER AND/OR NO OBSTRUCTIONS TO VISIBILITY.

NYZ032-033-038>043-046>054-057>066-NYZ062>081-082-084-301400-
EAST


CITY           SKY/WX    TMP DP  RH WIND       PRES   REMARKS
ALBANY         CLOUDY    69  61  75 N6        30.06R
GLENS FALLS    CLOUDY    70  60  70 E3        30.07R
POUGHKEEPSIE   CLOUDY    74  62  66 N7        30.03R
NEWBURGH       PTSUNNY   72  63  73 E12       30.04S
MONTGOMERY     CLOUDY    72  63  73 N6        30.03S
WHITE PLAINS   CLOUDY    74  65  73 NE6       30.03R
ISLIP          MOSUNNY   79  71  76 E5        30.00S
NEW YORK CITY  CLOUDY    77  70  79 NE9       30.01R
CENTRAL PARK   CLOUDY    78  70  76 NE5       30.04R HAZE
$$

NYZ005>009-017-018-044>046-055-056-301400-
CENTRAL


CITY           SKY/WX    TMP DP  RH WIND       PRES   REMARKS
FULTON         CLOUDY    70  58  65 VRB3      30.05S
SYRACUSE       CLOUDY    66  60  81 E6        30.04R
ROME           CLOUDY    66  60  81 CALM      30.07S
ELMIRA         CLOUDY    68  62  81 CALM      30.04R
BINGHAMTON     CLOUDY    61  59  93 E6        30.06S
MONTICELLO     CLOUDY    68  63  83 E6        30.07F
$$

NYZ026>034-041>043-087-301400-
NORTH


CITY           SKY/WX    TMP DP  RH WIND       PRES   REMARKS
WATERTOWN      CLOUDY    67  56  67 NE12      30.07R
FORT DRUM      NOT AVBL
MASSENA        CLOUDY    66  58  75 E5        30.09S
SARANAC LAKE   MOSUNNY   64  52  64 E7        30.10R
PLATTSBURGH    SUNNY     70  57  63 N7        30.08R
$$

NYZ001>004-010>016-019>021-085-301400-
WEST


CITY           SKY/WX    TMP DP  RH WIND       PRES   REMARKS
NIAGARA FALLS  LGT RAIN  70  60  70 E8        30.04R
BUFFALO        LGT RAIN  68  59  73 SE6       30.05R
DUNKIRK        LGT RAIN  65  61  87 E9        30.01F
JAMESTOWN      CLOUDY    61  57  88 SE5       30.05R
WELLSVILLE     CLOUDY    64  59  83 E3        30.08S
ROCHESTER      CLOUDY    74  59  59 E9        30.05R
PENN YAN       CLOUDY    66  58  75 SW3       30.06R
$$

             KEY
       WCI = WIND CHILL INDEX
       VSB = VISIBILITY
       HX  = HEAT INDEX
$$




USA.gov is the U.S. government's official web portal to all federal, state and local government web resources and services.